Time,TemperatureF,DewpointF,PressureIn,WindDirection,WindDirectionDegrees,WindSpeedMPH,WindSpeedGustMPH,Humidity,HourlyPrecipIn,Conditions,Clouds,dailyrainin,SolarRadiationWatts/m^2,SoftwareType,DateUTC
2013-01-01 00:00:00,48.5,43.6,30.14,North,5,0.0,16.0,83,0.00,,,0.00,0,Wunderground v.1.15,2013-01-01 05:00:00,
2013-01-01 00:30:00,47.5,43.2,30.13,North,350,0.0,16.0,85,0.00,,,0.00,0,Wunderground v.1.15,2013-01-01 05:30:00,
2013-01-01 01:00:00,47.5,43.8,30.10,North,355,1.0,1.0,87,0.00,,,0.00,0,Wunderground v.1.15,2013-01-01 06:00:00,
2013-01-01 01:30:00,48.4,44.4,30.09,North,355,2.0,2.0,86,0.00,,,0.00,0,Wunderground v.1.15,2013-01-01 06:30:00,
2013-01-01 02:00:00,50.3,45.6,30.09,North,5,2.0,16.0,84,0.00,,,0.00,0,Wunderground v.1.15,2013-01-01 07:00:00,
2013-01-01 02:30:00,51.7,46.4,30.08,North,355,3.0,16.0,82,0.00,,,0.00,0,Wunderground v.1.15,2013-01-01 07:30:00,
2013-01-01 03:00:00,51.9,46.3,30.07,NNE,30,3.0,16.0,81,0.00,,,0.00,0,Wunderground v.1.15,2013-01-01 08:00:00,
2013-01-01 03:30:00,52.8,46.8,30.06,North,5,3.0,16.0,80,0.00,,,0.00,0,Wunderground v.1.15,2013-01-01 08:30:00,
2013-01-01 04:00:00,53.5,47.1,30.07,NNE,13,4.0,16.0,79,0.00,,,0.00,0,Wunderground v.1.15,2013-01-01 09:00:00,
2013-01-01 04:30:00,53.7,47.3,30.06,North,5,4.0,16.0,79,0.00,,,0.00,0,Wunderground v.1.15,2013-01-01 09:30:00,
2013-01-01 05:00:00,54.0,47.3,30.05,NW,322,4.0,4.0,78,0.00,,,0.00,0,Wunderground v.1.15,2013-01-01 10:00:00,
2013-01-01 05:30:00,53.5,47.1,30.06,North,5,2.0,16.0,79,0.00,,,0.00,0,Wunderground v.1.15,2013-01-01 10:30:00,
2013-01-01 06:00:00,53.7,47.3,30.06,NNE,23,3.0,3.0,79,0.00,,,0.00,0,Wunderground v.1.15,2013-01-01 11:00:00,
2013-01-01 06:30:00,53.5,47.1,30.07,NNE,28,3.0,3.0,79,0.00,,,0.00,0,Wunderground v.1.15,2013-01-01 11:30:00,
2013-01-01 07:00:00,53.4,47.4,30.07,NE,39,3.0,16.0,80,0.00,,,0.00,0,Wunderground v.1.15,2013-01-01 12:00:00,
2013-01-01 07:30:00,53.0,47.3,30.09,NE,38,3.0,3.0,81,0.00,,,0.00,5,Wunderground v.1.15,2013-01-01 12:30:00,
2013-01-01 08:00:00,53.0,47.3,30.09,NNE,22,3.0,16.0,81,0.00,,,0.00,37,Wunderground v.1.15,2013-01-01 13:00:00,
2013-01-01 08:30:00,53.5,47.8,30.09,NE,35,3.0,16.0,81,0.00,,,0.00,47,Wunderground v.1.15,2013-01-01 13:30:00,
2013-01-01 09:00:00,54.4,48.7,30.10,NNE,28,3.0,16.0,81,0.00,,,0.00,102,Wunderground v.1.15,2013-01-01 14:00:00,
2013-01-01 09:30:00,54.3,47.9,30.10,NNE,32,4.0,4.0,79,0.00,,,0.00,79,Wunderground v.1.15,2013-01-01 14:30:00,
2013-01-01 10:00:00,55.3,48.6,30.11,NNE,28,3.0,3.0,78,0.00,,,0.00,135,Wunderground v.1.15,2013-01-01 15:00:00,
2013-01-01 10:30:00,56.9,49.4,30.11,NE,48,3.0,16.0,76,0.00,,,0.00,162,Wunderground v.1.15,2013-01-01 15:30:00,
2013-01-01 11:00:00,56.7,49.6,30.09,ENE,73,3.0,3.0,77,0.00,,,0.00,69,Wunderground v.1.15,2013-01-01 16:00:00,
2013-01-01 11:30:00,57.1,50.3,30.08,NE,45,2.0,2.0,78,0.00,,,0.00,107,Wunderground v.1.15,2013-01-01 16:30:00,
2013-01-01 12:00:00,57.7,50.9,30.06,NE,40,2.0,2.0,78,0.00,,,0.00,51,Wunderground v.1.15,2013-01-01 17:00:00,
2013-01-01 12:30:00,56.7,50.6,30.04,NNE,17,2.0,2.0,80,0.00,,,0.00,40,Wunderground v.1.15,2013-01-01 17:30:00,
2013-01-01 13:00:00,55.1,51.3,30.02,NNW,329,3.0,16.0,87,0.00,,,0.01,54,Wunderground v.1.15,2013-01-01 18:00:00,
2013-01-01 13:30:00,53.5,50.6,30.01,NNW,338,4.0,4.0,90,0.00,,,0.01,53,Wunderground v.1.15,2013-01-01 18:30:00,
2013-01-01 14:00:00,53.4,50.8,30.01,NNE,15,3.0,16.0,91,0.00,,,0.01,44,Wunderground v.1.15,2013-01-01 19:00:00,
2013-01-01 14:30:00,53.2,51.2,30.01,NNE,17,2.0,16.0,93,0.08,,,0.03,72,Wunderground v.1.15,2013-01-01 19:30:00,
2013-01-01 15:00:00,53.4,51.7,29.99,NNE,15,3.0,3.0,94,0.00,,,0.04,95,Wunderground v.1.15,2013-01-01 20:00:00,
2013-01-01 15:30:00,53.9,52.2,29.98,NNW,346,3.0,3.0,94,0.00,,,0.04,49,Wunderground v.1.15,2013-01-01 20:30:00,
2013-01-01 16:00:00,54.0,52.3,29.98,NNE,28,4.0,4.0,94,0.00,,,0.04,23,Wunderground v.1.15,2013-01-01 21:00:00,
2013-01-01 16:30:00,54.1,52.4,29.98,NNE,23,3.0,3.0,94,0.00,,,0.04,30,Wunderground v.1.15,2013-01-01 21:30:00,
2013-01-01 17:00:00,53.9,51.9,29.97,NNE,22,2.0,2.0,93,0.00,,,0.04,5,Wunderground v.1.15,2013-01-01 22:00:00,
2013-01-01 17:30:00,53.5,51.8,29.97,NNE,32,0.0,16.0,94,0.00,,,0.04,0,Wunderground v.1.15,2013-01-01 22:30:00,
2013-01-01 18:00:00,53.4,51.7,29.98,NNE,19,2.0,16.0,94,0.00,,,0.04,0,Wunderground v.1.15,2013-01-01 23:00:00,
2013-01-01 18:30:00,53.2,51.5,29.99,NNE,33,1.0,16.0,94,0.00,,,0.04,0,Wunderground v.1.15,2013-01-01 23:30:00,
2013-01-01 19:00:00,53.2,51.5,29.99,NNE,33,1.0,1.0,94,0.00,,,0.04,0,Wunderground v.1.15,2013-01-02 00:00:00,
2013-01-01 19:30:00,53.1,51.7,29.99,NNE,33,0.0,16.0,95,0.00,,,0.04,0,Wunderground v.1.15,2013-01-02 00:30:00,
2013-01-01 20:00:00,53.4,52.0,29.99,ENE,63,2.0,16.0,95,0.00,,,0.05,0,Wunderground v.1.15,2013-01-02 01:00:00,
2013-01-01 20:30:00,54.1,52.7,29.99,NE,38,1.0,1.0,95,0.00,,,0.06,0,Wunderground v.1.15,2013-01-02 01:30:00,
2013-01-01 21:00:00,53.8,52.4,29.98,NE,38,0.0,16.0,95,0.00,,,0.06,0,Wunderground v.1.15,2013-01-02 02:00:00,
2013-01-01 21:30:00,53.4,52.0,29.98,NE,38,0.0,16.0,95,0.00,,,0.06,0,Wunderground v.1.15,2013-01-02 02:30:00,
2013-01-01 22:00:00,53.2,51.8,29.96,NE,38,0.0,16.0,95,0.00,,,0.06,0,Wunderground v.1.15,2013-01-02 03:00:00,
2013-01-01 22:30:00,52.9,51.8,29.94,NE,38,0.0,16.0,96,0.00,,,0.06,0,Wunderground v.1.15,2013-01-02 03:30:00,
2013-01-01 23:00:00,52.8,51.7,29.93,NE,38,0.0,16.0,96,0.00,,,0.06,0,Wunderground v.1.15,2013-01-02 04:00:00,
2013-01-01 23:30:00,52.7,51.6,29.94,NE,38,0.0,16.0,96,0.00,,,0.06,0,Wunderground v.1.15,2013-01-02 04:30:00,